Find Starlink 38000

NORAD ID: 100428 Int'l Des: 2026-192 Owner: SPXS Country: US Constellation: starlink operational

当前视图

正在加载3D地球...

About Starlink 38000

Starlink 38000 (NORAD 100428) is a starlink constellation satellite launched Aug 21, 2026 by SPXS of US. with a mass of 575.00 kg.

即将过境

Passes for default location (London). Set your location on the main map for personalized predictions.

高度历史

Loading altitude history...

两行轨道根数

1 A0428U 26192AA 26263.39182523 .00029453 00000-0 53501-3 0 9996
2 A0428 53.1587 307.2243 0000989 33.0364 327.0707 15.49341133 5882
Epoch: Sep 20, 2026 • Age: 23 hours

当前状态

高度 436.4 km
远地点 / 近地点 N/A
速度 7.65 km/s
星下点 -50.29°S, 63.72°E
发射日期 Aug 21, 2026
运行时间 30 days
类型 internet

技术详情

分类 Payload
质量 575.00 kg
干质量 530.00 kg
长度 0.30 m
跨度 29.00 m
形状 ? Box + pan
制造商 SPXS
平台类型 Starlink V2MO
阶段状态 In Orbit
所有者/国家 SPXS/US

Most Searched